Wind_Speed
4 3 7 13 9 4 4 4 5 4 4 6 9 9 11 18 21 25 28 31 34 34 30 28 27 24 21 20 19 19 22 25 26 29 29 28 26 24 22 19 17 16 14 14
4 8 12 4 5 6 5 4 8 6 5 7 7 11 11 8 17 32 37 37 39 37 35 34 32 28 24 21 20 21 22 26 29 29 29 28 27 26 23 21 20 18 15 16
8 6 7 9 5 6 7 8 5 8 2 3 4 7 9 10 26 31 37 42 42 46 44 40 36 31 27 26 24 23 24 28 32 30 31 31 29 27 25 24 22 19 19 18
7 6 5 5 6 8 8 7 6 5 1 5 3 7 5 6 11 10 34 38 46 45 44 43 39 34 31 28 24 25 28 31 31 31 32 30 30 29 27 26 24 24 21 19
9 7 8 6 7 9 7 4 5 3 3 2 5 4 5 3 8 12 24 36 38 44 46 47 46 38 33 29 29 30 31 31 32 31 31 31 30 30 30 29 28 27 24 20
4 3 7 8 3 7 5 5 6 4 3 5 11 8 5 7 11 8 23 29 34 38 43 45 45 38 34 32 32 32 33 32 33 32 31 31 33 33 33 33 31 28 25 20
3 5 4 6 5 3 4 7 2 3 1 9 3 8 19 6 10 12 16 28 23 29 37 42 47 43 38 38 38 37 36 35 34 33 32 33 33 31 33 33 31 27 24 20
11 7 12 7 12 8 10 9 6 7 5 5 1 8 6 11 21 24 28 25 19 25 32 38 46 44 41 40 40 40 39 37 35 35 35 34 34 34 33 30 27 23 21 18
7 7 1 1 4 12 7 9 6 2 2 2 6 8 8 10 9 15 28 17 16 24 32 38 44 43 41 40 41 41 40 38 37 36 36 35 35 35 33 30 26 23 20 18
5 3 1 1 5 3 6 8 2 1 2 6 5 6 9 5 11 12 11 11 19 23 31 36 42 40 38 39 41 41 40 39 38 38 38 37 37 35 32 30 27 24 21 18
5 5 1 3 7 11 3 5 3 5 5 5 3 7 7 11 11 10 11 26 23 25 31 36 38 38 36 38 41 42 42 40 41 41 40 39 39 37 33 30 26 23 21 19
10 4 5 8 2 2 1 4 6 5 5 5 2 17 4 6 6 9 13 15 21 25 29 33 36 37 37 39 42 43 42 43 43 42 40 40 40 38 35 31 27 25 23 20
10 5 1 5 3 2 5 6 12 1 2 11 5 17 1 4 4 8 14 14 16 21 27 31 35 38 39 41 43 44 45 45 44 43 43 42 41 39 36 32 30 28 26 22
22 6 10 17 4 7 7 8 14 19 10 8 22 21 6 4 5 7 13 12 16 20 26 31 35 39 40 42 45 46 47 46 45 45 44 43 42 39 36 33 32 30 27 24
13 11 12 22 13 8 9 13 21 24 31 13 34 19 24 9 11 17 18 15 17 22 25 31 36 40 42 44 46 48 48 49 48 47 46 45 42 38 36 35 33 30 28 26
4 18 21 27 19 11 8 12 23 30 28 27 30 32 7 11 15 14 28 24 24 27 30 33 35 39 43 46 49 51 52 50 50 49 48 45 42 39 38 36 34 31 30 29
11 13 7 19 17 5 5 34 12 14 21 21 23 37 9 15 12 20 27 30 33 34 35 36 38 40 42 46 49 53 52 52 51 50 48 45 42 40 39 37 35 33 32 31
4 16 12 14 6 14 22 18 25 25 22 19 20 29 11 20 33 39 36 33 35 34 34 36 37 39 40 42 45 48 51 51 50 49 47 45 43 41 39 38 36 34 33 30
17 10 6 7 14 9 9 6 9 12 28 29 28 31 32 33 21 37 32 33 34 32 32 36 37 37 36 36 40 44 45 46 47 48 47 45 44 40 40 39 37 34 32 28
21 20 12 4 10 13 8 4 6 6 17 11 21 28 25 10 9 20 27 30 32 30 28 28 28 29 29 31 33 35 36 39 42 44 45 44 41 43 44 39 34 31 31 32
4 10 19 18 13 5 5 5 11 10 8 0 3 7 9 8 14 9 6 11 16 18 20 19 19 23 23 22 25 28 28 30 27 29 32 35 38 41 39 35 33 33 33 38
6 4 4 7 8 12 11 4 9 4 2 2 3 4 8 13 13 12 12 12 11 11 14 15 16 18 19 20 21 22 21 21 20 20 23 29 32 33 33 34 35 36 34 32
5 8 5 8 5 2 12 2 7 5 4 4 3 4 5 7 7 9 12 12 13 14 16 16 17 20 20 19 20 19 18 17 18 20 20 21 24 26 28 30 30 30 29 31
4 2 3 2 5 5 7 9 8 8 3 3 4 4 8 6 8 10 13 14 14 14 14 15 16 16 16 15 15 12 13 13 15 15 16 18 21 23 24 25 26 26 28 30
2 7 6 4 4 4 13 14 8 5 8 6 5 6 6 6 8 9 12 13 13 13 14 14 14 15 17 18 18 17 15 14 13 14 15 17 18 20 22 24 24 26 27 28
6 5 6 4 5 3 4 17 18 12 7 5 3 5 6 6 8 9 11 12 14 16 17 18 18 18 19 18 15 13 11 11 12 14 16 17 18 19 22 23 24 25 27 28
Wind_Direction
164 119 202 210 202 175 169 199 238 253 216 173 224 243 261 229 221 233 232 232 233 235 232 226 227 228 228 225 225 219 209 192 192 188 189 193 196 195 198 197 204 192 188 183
65 229 227 165 206 224 242 251 264 285 244 181 251 245 251 211 226 231 235 237 236 233 226 223 225 225 226 226 220 211 202 190 185 191 192 194 195 195 196 197 199 190 187 174
176 212 179 171 182 194 232 218 235 233 344 267 317 269 241 248 239 243 246 249 247 238 228 220 220 222 220 218 214 207 197 189 190 191 193 193 193 192 193 194 192 183 178 171
233 231 159 173 206 171 237 204 203 230 141 246 159 282 257 252 247 230 245 241 243 238 231 225 221 220 220 216 208 202 194 191 194 195 196 199 199 195 194 193 188 177 170 164
228 184 187 187 196 174 232 167 193 213 200 2 215 285 262 233 259 249 248 245 245 241 237 225 220 220 218 209 206 200 196 195 196 198 198 198 199 201 195 186 178 171 166 168
227 199 173 196 127 177 139 79 46 50 79 259 232 196 212 210 226 248 251 255 251 241 234 228 218 214 211 205 203 199 195 198 199 200 201 201 205 200 188 180 177 173 171 169
147 215 197 156 105 68 120 113 286 313 335 242 283 203 248 275 261 224 253 266 254 238 228 221 209 206 204 202 199 197 199 200 201 202 202 203 203 202 190 183 181 178 176 175
194 252 174 186 196 169 197 165 166 217 215 260 9 238 247 228 255 256 257 267 265 231 225 221 209 206 205 204 202 200 201 202 204 206 205 201 200 194 189 187 185 185 183 181
178 253 87 127 142 162 197 213 181 336 78 355 222 280 289 256 278 262 258 263 231 224 222 217 207 207 207 207 206 206 201 203 207 206 200 195 193 193 191 187 186 187 185 186
211 277 333 161 112 47 164 160 89 16 229 254 267 261 235 236 234 247 258 220 225 223 218 213 209 210 211 212 209 208 206 206 206 204 198 194 193 193 192 191 191 191 191 193
175 182 247 135 208 171 149 189 180 139 166 200 299 258 218 211 214 233 253 254 234 221 220 216 213 214 216 214 210 209 208 208 206 202 198 197 194 194 195 196 196 197 198 199
199 206 190 206 225 238 215 221 156 152 217 233 166 262 160 197 199 218 263 265 246 231 224 221 218 216 215 214 211 210 208 207 206 203 201 198 197 197 197 198 199 201 204 205
165 215 36 330 345 308 209 196 204 150 77 221 178 261 252 219 236 248 252 263 249 230 222 220 219 217 216 214 212 210 209 207 205 203 201 200 201 201 201 201 203 205 207 209
168 176 206 228 167 151 200 196 200 209 233 219 234 257 217 209 226 247 245 250 236 230 225 223 222 221 219 217 214 211 209 207 205 204 204 204 205 206 206 206 208 210 210 212
177 232 222 243 247 191 203 199 203 209 226 207 253 240 255 215 220 239 259 240 221 221 229 229 225 224 221 219 217 214 212 208 207 207 207 209 209 209 209 209 211 211 213 215
216 229 228 252 237 197 228 221 218 213 223 230 251 258 145 215 243 222 241 233 223 231 241 242 233 228 225 222 219 216 214 212 211 211 212 212 212 212 212 213 214 214 216 217
200 210 201 236 236 166 250 238 193 216 224 219 235 246 215 252 231 230 237 239 239 244 248 244 244 239 231 226 222 219 217 215 213 214 214 215 215 216 216 217 218 219 221 222
210 221 221 237 163 224 240 247 226 228 235 225 249 258 229 244 253 254 250 253 250 248 250 252 251 246 241 231 226 223 220 218 217 218 218 219 220 221 221 222 223 224 226 227
203 204 228 222 225 268 281 208 159 182 243 231 231 250 258 252 264 268 261 252 256 261 264 262 256 247 239 232 226 223 222 222 221 223 225 225 224 225 228 227 227 228 233 233
220 214 214 201 228 232 267 193 176 112 244 188 210 238 241 192 239 261 267 267 264 257 252 252 246 237 234 228 223 222 222 222 223 227 229 230 230 236 232 232 232 241 239 250
194 212 215 222 238 270 236 209 145 169 242 172 185 242 159 192 222 249 301 256 248 246 245 238 233 229 223 214 212 210 215 219 220 224 231 237 237 236 236 237 237 240 249 245
178 202 212 222 233 237 159 137 179 201 138 164 207 233 229 230 238 255 244 232 224 217 200 191 190 193 194 193 199 206 216 226 229 232 229 232 233 232 234 236 242 244 244 245
203 193 188 197 213 262 192 318 191 170 151 184 192 218 194 185 187 169 169 168 166 169 173 179 188 189 194 202 208 215 224 223 223 225 225 224 227 229 233 237 241 242 241 241
262 163 197 105 220 227 219 216 218 204 143 142 148 157 170 163 165 172 173 172 178 179 183 185 186 193 193 181 177 185 195 196 201 207 211 216 222 227 232 235 237 237 239 241
175 142 174 258 254 304 264 226 239 198 168 160 158 168 178 177 172 178 174 171 169 167 162 163 162 160 159 158 160 164 172 182 195 204 213 220 226 234 237 234 235 239 243 248
183 185 194 208 173 168 208 235 205 193 173 164 150 159 169 174 180 175 169 161 155 153 152 148 150 153 155 157 164 175 191 207 221 227 230 233 236 239 238 239 243 247 252 254
Height
1535 1542 1546 1538 1539 1538 1541 1546 1544 1538 1533 1538 1538 1535 1527 1527 1529 1528 1526 1525 1524 1524 1528 1530 1531 1533 1534 1535 1537 1538 1539 1541 1545 1548 1552 1556 1559 1562 1565 1567 1569 1570 1571 1572
1540 1542 1529 1533 1537 1539 1541 1543 1546 1538 1532 1536 1532 1531 1523 1522 1520 1517 1515 1515 1515 1517 1519 1521 1524 1526 1529 1531 1533 1534 1536 1539 1543 1547 1549 1553 1557 1560 1562 1565 1567 1569 1571 1571
1535 1526 1523 1530 1536 1540 1539 1543 1542 1540 1533 1532 1533 1531 1522 1511 1509 1508 1506 1505 1505 1504 1507 1513 1516 1519 1523 1525 1527 1530 1534 1537 1540 1544 1546 1549 1552 1556 1560 1563 1566 1568 1570 1571
1529 1522 1525 1530 1532 1534 1540 1530 1533 1534 1537 1548 1533 1532 1516 1510 1505 1501 1495 1494 1492 1495 1499 1506 1509 1512 1515 1519 1524 1527 1530 1534 1538 1541 1544 1548 1550 1553 1557 1560 1563 1566 1569 1571
1519 1519 1523 1525 1523 1526 1530 1526 1530 1532 1538 1540 1535 1546 1507 1503 1504 1494 1483 1481 1483 1484 1487 1492 1497 1504 1509 1514 1517 1522 1527 1531 1535 1538 1542 1545 1547 1551 1554 1557 1560 1564 1566 1568
1513 1512 1514 1514 1518 1520 1525 1529 1536 1541 1544 1549 1526 1535 1499 1501 1488 1479 1471 1472 1474 1475 1477 1484 1493 1500 1504 1508 1512 1517 1522 1527 1531 1535 1539 1542 1545 1546 1549 1554 1558 1560 1563 1565
1514 1511 1509 1510 1518 1522 1524 1532 1553 1556 1560 1533 1520 1526 1480 1480 1476 1471 1466 1464 1467 1469 1472 1476 1483 1490 1496 1501 1506 1512 1518 1523 1527 1532 1536 1539 1542 1546 1549 1551 1555 1558 1561 1563
1511 1515 1504 1500 1500 1513 1521 1524 1542 1552 1548 1533 1525 1515 1484 1469 1464 1464 1462 1461 1463 1466 1469 1471 1477 1484 1490 1495 1501 1507 1513 1518 1523 1528 1532 1535 1539 1543 1547 1550 1553 1557 1559 1562
1506 1505 1493 1494 1496 1500 1519 1521 1514 1525 1568 1551 1511 1489 1473 1467 1465 1461 1457 1458 1460 1463 1465 1468 1475 1480 1485 1491 1496 1501 1508 1514 1519 1523 1528 1532 1536 1540 1543 1547 1551 1554 1557 1560
1487 1498 1496 1494 1495 1499 1501 1504 1526 1535 1543 1544 1504 1497 1473 1464 1463 1457 1453 1455 1457 1459 1462 1466 1471 1478 1483 1488 1492 1497 1503 1508 1514 1519 1524 1528 1533 1537 1541 1544 1547 1551 1555 1557
1481 1488 1500 1496 1493 1494 1503 1504 1506 1511 1522 1526 1524 1473 1457 1453 1452 1452 1450 1449 1452 1455 1458 1462 1468 1475 1480 1485 1489 1494 1499 1504 1509 1514 1519 1524 1529 1533 1537 1541 1545 1548 1552 1554
1475 1481 1502 1493 1485 1486 1486 1486 1496 1508 1514 1513 1510 1445 1445 1448 1448 1448 1448 1447 1448 1451 1454 1459 1464 1469 1474 1479 1485 1489 1494 1498 1504 1510 1515 1520 1525 1529 1533 1537 1541 1544 1548 1551
1470 1482 1500 1493 1491 1487 1486 1485 1482 1488 1496 1485 1498 1428 1445 1445 1445 1445 1444 1444 1447 1449 1452 1456 1460 1464 1468 1473 1478 1483 1488 1493 1500 1506 1511 1515 1519 1523 1527 1532 1536 1539 1543 1546
1458 1469 1468 1458 1459 1470 1481 1478 1478 1478 1479 1471 1456 1434 1441 1441 1442 1441 1439 1441 1443 1445 1448 1451 1455 1458 1463 1467 1471 1476 1482 1488 1494 1500 1505 1509 1513 1518 1523 1526 1530 1534 1537 1540
1458 1466 1464 1449 1453 1459 1460 1462 1465 1467 1447 1463 1416 1443 1415 1435 1437 1434 1437 1439 1440 1441 1444 1445 1448 1451 1456 1460 1465 1470 1476 1481 1488 1493 1499 1503 1509 1514 1518 1521 1525 1529 1532 1535
1450 1450 1457 1448 1447 1455 1456 1456 1446 1443 1442 1447 1433 1425 1428 1428 1427 1429 1430 1431 1433 1434 1434 1436 1440 1444 1446 1450 1455 1461 1467 1474 1481 1487 1492 1499 1504 1509 1512 1517 1521 1524 1526 1529
1446 1448 1455 1443 1440 1457 1458 1421 1441 1439 1434 1435 1438 1400 1421 1424 1423 1420 1420 1423 1424 1426 1428 1428 1430 1432 1437 1441 1446 1451 1460 1468 1475 1480 1486 1493 1499 1503 1507 1512 1516 1518 1520 1524
1441 1441 1443 1433 1445 1435 1405 1408 1415 1421 1421 1427 1423 1402 1411 1412 1412 1410 1412 1416 1417 1419 1421 1422 1424 1426 1429 1435 1441 1448 1453 1461 1469 1475 1481 1487 1492 1497 1501 1505 1509 1513 1515 1519
1427 1435 1434 1424 1420 1413 1407 1405 1408 1414 1405 1403 1409 1401 1403 1406 1409 1397 1406 1405 1406 1411 1413 1415 1416 1419 1424 1430 1436 1442 1448 1457 1464 1469 1474 1480 1485 1491 1496 1499 1503 1507 1511 1514
1416 1417 1425 1424 1410 1403 1387 1393 1393 1402 1404 1387 1396 1390 1392 1402 1410 1384 1397 1399 1401 1402 1403 1405 1409 1413 1418 1423 1430 1437 1444 1450 1454 1461 1467 1474 1481 1485 1488 1493 1498 1503 1506 1506
1411 1407 1401 1404 1399 1402 1397 1396 1395 1403 1388 1384 1386 1387 1390 1394 1388 1388 1391 1393 1396 1397 1399 1402 1406 1410 1415 1420 1427 1432 1439 1444 1450 1455 1462 1467 1472 1478 1483 1488 1493 1494 1495 1497
1408 1408 1404 1403 1396 1392 1391 1399 1395 1382 1381 1383 1385 1386 1386 1386 1386 1386 1388 1392 1393 1395 1397 1401 1405 1411 1416 1421 1426 1431 1436 1442 1447 1452 1456 1460 1466 1472 1477 1480 1483 1486 1489 1491
1396 1391 1396 1397 1388 1385 1386 1387 1383 1383 1381 1383 1384 1384 1384 1384 1385 1385 1387 1391 1395 1398 1401 1404 1409 1413 1418 1423 1427 1432 1437 1441 1446 1450 1454 1458 1463 1467 1471 1474 1476 1480 1482 1484
1389 1386 1387 1388 1382 1381 1381 1382 1385 1384 1379 1382 1384 1385 1386 1386 1386 1387 1388 1391 1395 1399 1402 1406 1410 1414 1419 1423 1427 1432 1436 1439 1443 1447 1451 1455 1458 1462 1465 1467 1470 1473 1475 1477
1382 1384 1382 1382 1380 1380 1379 1378 1383 1384 1384 1385 1385 1385 1386 1386 1387 1389 1390 1393 1397 1401 1404 1408 1411 1415 1419 1424 1428 1432 1436 1439 1443 1446 1449 1451 1455 1457 1460 1463 1466 1468 1470 1471
1377 1376 1375 1371 1369 1373 1374 1373 1380 1385 1386 1386 1386 1386 1386 1387 1388 1391 1393 1396 1399 1402 1406 1409 1413 1418 1422 1426 1430 1433 1436 1439 1442 1444 1446 1449 1451 1454 1456 1458 1460 1461 1463 1465